Temp
18 17 17 17 17 17 17 17 17 17 17 17 18 18 19 20 21 21 21 21 21 21 21 21 20 20 21 21 21 21 21 21 21 20 20 20 20 20 20 20 21 21
19 18 17 16 16 16 17 17 17 17 17 18 18 18 18 19 20 21 21 21 21 21 21 21 20 20 21 21 21 21 21 21 21 20 20 20 20 20 20 20 21 21
19 19 17 16 16 17 17 17 16 17 17 18 18 18 18 19 20 21 21 21 21 21 21 21 21 21 21 21 21 21 21 21 21 20 20 20 20 20 20 20 21 21
19 19 18 17 16 17 17 17 16 16 17 17 18 18 18 18 19 20 21 20 20 20 20 21 21 21 21 21 21 21 21 21 21 21 20 20 20 20 20 20 21 21
20 20 19 17 16 17 17 17 16 16 17 17 18 18 17 17 19 20 20 20 20 20 20 20 21 21 21 21 21 21 21 21 21 21 21 21 20 20 20 20 21 21
20 20 19 18 17 16 17 18 17 16 16 17 17 18 17 17 18 19 19 20 20 20 20 20 20 20 21 21 21 21 21 21 21 21 21 21 21 21 21 21 21 21
20 20 20 19 18 16 16 18 18 16 16 17 17 17 17 17 18 18 18 19 19 19 20 20 20 20 20 21 21 21 21 21 21 21 21 21 21 21 21 21 21 21
20 20 20 20 19 17 15 16 17 16 16 16 17 17 17 17 17 17 18 19 19 18 18 19 20 20 20 20 21 21 21 21 21 21 21 21 21 21 21 21 21 21
20 20 20 20 20 19 18 17 16 16 17 16 16 16 17 17 17 17 17 18 19 19 18 18 19 20 20 20 20 20 21 21 21 21 21 22 21 21 21 21 21 21
19 19 19 19 19 20 20 18 16 16 17 17 16 16 17 17 17 17 16 17 18 19 18 18 18 19 20 20 20 20 20 20 21 21 21 21 21 21 21 21 21 21
19 19 19 19 19 19 19 18 18 16 16 17 17 16 16 16 17 17 17 16 17 18 19 19 18 19 19 20 20 20 20 20 20 20 21 21 21 21 21 22 22 22
18 19 19 19 19 19 18 17 18 17 15 16 17 16 16 16 17 17 17 17 18 18 19 19 19 18 18 19 20 20 20 20 20 20 20 20 20 21 21 22 22 22
18 18 19 19 19 19 17 16 17 17 15 15 16 16 17 17 17 16 17 18 18 18 18 18 19 18 18 18 19 19 19 20 19 20 20 20 20 20 20 21 22 22
18 18 19 19 19 18 16 16 17 17 17 16 16 17 17 17 17 17 17 18 18 18 19 18 18 18 18 18 19 19 19 19 20 20 20 19 19 19 20 21 21 22
17 18 18 18 18 18 16 15 16 17 17 17 16 16 16 17 17 17 17 18 18 19 19 18 17 18 19 19 19 19 19 19 20 20 19 19 19 19 20 20 21 21
17 18 18 18 18 18 16 15 15 16 16 16 15 16 16 16 17 17 17 18 18 19 19 19 18 18 19 20 20 19 19 19 19 19 19 19 19 19 19 20 20 21
17 17 18 18 18 18 16 14 14 16 15 15 15 15 16 16 16 17 17 17 17 17 17 17 17 17 18 20 20 20 20 19 20 19 19 19 19 19 19 20 20 20
17 17 17 17 18 18 17 15 14 15 15 14 15 15 15 16 16 16 16 17 16 16 16 16 17 17 18 18 19 20 20 20 20 20 19 19 19 19 19 20 20 20
16 16 17 17 17 18 17 15 14 14 14 14 15 15 15 15 15 15 16 16 16 16 16 16 17 18 18 18 18 19 20 21 20 20 20 19 19 19 19 19 19 19
15 15 16 16 17 17 17 16 15 14 14 15 15 15 15 15 15 15 16 16 16 16 16 16 16 17 18 18 18 18 19 20 21 20 20 19 19 19 19 19 20 20
13 14 15 15 16 17 17 17 16 15 15 15 15 15 15 15 15 15 15 16 16 16 16 16 16 16 17 17 17 17 17 18 19 20 21 20 20 20 20 20 20 20
12 13 14 15 15 16 16 17 16 16 15 14 14 15 15 15 15 15 15 16 16 17 17 17 17 18 18 18 18 18 17 17 17 18 19 19 19 20 20 21 21 21
11 12 13 13 14 15 15 16 16 16 16 15 15 15 15 15 15 15 15 15 16 16 17 17 19 20 19 18 18 19 19 19 19 18 16 16 16 17 18 19 20 21
11 11 12 12 12 13 13 14 14 15 16 16 15 15 15 15 15 14 15 15 15 16 16 17 18 20 20 19 19 20 19 19 20 19 18 16 16 17 17 18 18 19
9 10 10 10 11 11 11 12 13 14 15 16 16 16 16 16 15 14 15 15 15 16 16 17 17 18 19 20 20 20 19 19 19 18 17 17 17 18 18 19 19 19
8 9 9 9 9 10 10 11 12 13 14 15 16 16 17 16 15 14 14 14 15 15 16 16 16 17 17 18 19 20 19 18 17 17 17 17 17 17 18 18 19 18
Height
740 740 740 741 740 738 739 740 740 741 742 744 748 752 751 746 742 741 742 743 743 745 746 747 748 750 752 754 755 757 759 762 765 767 770 772 774 776 777 779 780 782
735 735 735 736 736 734 734 735 736 737 737 739 742 746 748 745 739 736 736 738 740 741 743 744 745 747 749 751 752 753 755 758 761 764 767 769 771 773 774 776 778 780
731 730 730 731 731 729 728 729 731 733 733 733 735 738 741 740 737 733 731 733 736 738 740 742 743 744 746 748 750 750 752 755 757 760 763 766 768 771 772 774 776 778
727 725 724 725 725 723 723 723 724 727 729 729 729 732 734 735 735 731 728 729 733 736 738 740 741 742 743 746 747 748 749 751 754 757 760 762 765 767 769 772 773 775
723 722 720 720 720 719 718 718 717 720 724 725 726 728 731 733 734 731 728 728 731 735 737 738 739 740 741 743 744 745 746 748 751 754 756 759 762 764 766 768 770 772
719 719 717 716 716 716 714 711 712 716 720 722 723 724 727 731 733 731 730 729 731 733 734 736 737 737 737 740 741 742 743 745 747 750 752 755 757 760 762 764 766 768
715 715 715 713 712 712 710 707 708 712 717 720 720 720 722 728 731 730 730 729 730 732 733 733 733 732 732 735 737 738 739 741 743 745 747 750 752 755 757 759 762 764
711 711 711 711 709 709 709 709 707 709 713 715 715 716 718 724 727 727 726 725 725 728 730 731 730 728 728 730 732 733 733 734 737 739 741 744 747 749 752 755 758 760
709 708 707 707 706 705 705 706 707 708 709 709 711 714 715 717 720 722 723 721 719 722 725 728 728 726 724 725 727 727 728 729 732 735 737 739 741 743 746 750 753 756
706 705 704 703 702 700 699 699 702 703 703 703 705 710 713 713 714 716 718 718 717 717 720 724 726 724 721 721 722 724 725 726 728 731 734 735 736 738 741 744 747 750
704 702 701 699 698 696 694 693 695 697 698 698 699 704 708 710 709 709 710 713 714 714 715 717 719 720 719 717 718 720 721 722 723 726 729 731 733 735 737 740 742 745
702 700 698 696 695 693 691 690 691 693 696 697 696 699 703 704 704 704 704 707 709 709 710 711 712 715 717 715 714 715 716 718 720 722 724 727 730 732 735 737 739 741
700 698 696 694 692 691 689 689 689 690 693 694 694 695 697 697 698 700 701 702 703 704 706 707 706 708 712 715 713 712 712 713 715 718 721 723 726 729 732 734 735 737
698 696 694 692 690 688 687 686 685 685 687 689 690 690 691 692 693 695 697 698 699 700 701 702 703 702 704 710 712 711 710 709 709 712 715 718 722 725 728 730 731 733
696 694 692 690 688 685 684 684 683 681 681 683 685 686 687 688 688 689 691 692 693 695 696 698 699 698 698 702 705 707 708 706 705 708 711 714 718 721 724 726 727 728
694 692 690 688 686 683 682 682 681 678 677 678 681 683 683 683 683 684 686 688 690 691 692 693 695 697 696 697 698 701 704 704 703 705 708 711 713 716 720 722 724 725
693 690 688 686 684 681 680 680 679 677 674 675 678 680 681 680 679 680 682 685 687 688 689 691 694 697 697 696 695 697 699 699 700 703 706 708 710 712 715 717 719 721
691 689 687 685 683 681 679 678 679 676 673 673 674 675 677 677 677 677 679 681 683 684 687 689 692 695 698 698 696 695 695 695 696 699 703 705 707 709 711 712 714 716
691 689 687 685 682 680 678 677 677 675 672 671 670 671 672 673 674 676 677 678 679 681 684 688 689 691 695 698 698 697 696 695 695 697 699 701 703 705 707 708 709 711
691 688 687 685 682 680 677 675 676 675 672 669 668 668 669 669 670 672 674 675 676 677 681 685 687 689 691 694 697 698 698 695 694 695 695 696 698 700 702 703 703 705
692 689 687 685 682 679 677 675 674 674 674 671 669 668 666 665 666 668 670 672 672 672 675 679 682 686 688 690 693 696 698 696 694 693 693 693 694 695 696 697 698 699
694 691 688 685 682 679 677 676 674 674 674 673 671 669 667 665 665 666 668 669 669 670 671 674 676 679 681 684 688 693 695 695 694 693 692 692 693 694 695 695 694 694
695 692 689 686 683 680 678 676 675 674 673 672 670 669 668 667 667 667 668 668 668 668 669 670 671 672 673 675 680 685 689 691 692 692 692 694 695 696 698 698 696 694
695 692 689 687 684 682 680 677 675 674 672 671 669 668 667 667 668 669 669 667 666 666 666 666 666 667 667 667 671 677 682 685 687 687 688 692 695 697 698 698 698 697
695 693 690 687 685 683 681 679 677 674 672 670 668 666 665 665 667 669 670 667 665 663 663 663 663 664 665 663 664 669 676 680 682 683 684 687 691 693 694 694 695 697
695 693 690 688 685 683 681 680 678 675 672 670 667 665 663 662 664 667 669 668 666 663 661 660 661 662 664 663 661 664 669 674 678 680 682 685 687 689 691 691 692 694
Wind_Speed
30 34 34 33 35 37 37 35 33 34 33 32 34 37 38 42 43 41 43 42 39 40 42 41 42 42 37 35 36 35 34 33 31 30 31 32 31 28 29 30 28 25
28 32 34 33 33 35 35 36 35 35 35 35 37 40 40 41 44 43 42 43 41 40 42 41 40 42 39 35 35 34 33 33 32 31 30 31 32 30 29 30 30 28
25 30 32 32 33 36 37 37 37 36 37 39 41 44 45 43 42 43 43 43 43 40 40 40 38 40 40 36 33 33 33 33 32 32 31 31 31 30 29 29 29 30
22 28 31 32 35 40 42 39 37 37 38 41 43 46 48 46 42 42 42 41 41 40 39 40 38 36 37 36 32 30 32 33 31 31 31 30 31 31 30 28 28 29
20 24 29 33 36 39 42 40 38 38 40 42 45 45 44 41 37 37 38 37 38 38 37 39 38 35 34 34 33 30 31 32 31 31 31 30 30 31 30 29 29 28
20 20 23 29 35 38 42 44 41 38 40 43 46 45 40 36 32 28 30 33 36 38 37 37 37 35 34 34 34 32 30 31 31 30 31 30 29 30 30 30 30 30
22 20 20 22 31 38 43 46 44 40 42 44 45 43 39 36 31 27 28 32 34 36 36 37 39 38 36 35 35 33 31 31 32 31 31 31 30 29 30 30 29 30
23 22 21 20 24 31 37 44 46 44 43 43 41 38 36 35 35 33 34 36 37 37 36 37 39 38 37 36 36 37 36 35 35 35 33 32 31 30 30 29 29 29
24 22 22 23 24 25 28 37 41 38 38 39 36 33 33 37 40 39 37 36 37 38 36 34 35 37 39 39 39 40 38 35 36 36 34 33 33 32 31 30 30 29
24 23 23 23 24 25 24 26 29 31 35 39 35 31 33 37 40 39 36 31 32 36 37 33 32 35 39 40 40 40 38 36 34 33 32 33 33 33 33 32 31 31
24 23 23 23 24 23 20 18 20 26 33 36 34 32 35 39 39 37 36 32 32 36 38 35 34 36 38 41 42 42 41 40 37 34 33 33 32 32 32 32 32 32
23 24 23 22 23 21 16 14 17 24 31 34 36 35 36 40 40 37 39 40 38 38 38 37 37 36 37 41 44 44 42 41 40 38 37 36 34 32 31 31 31 31
23 24 24 22 22 19 13 13 16 23 29 33 36 35 34 38 39 36 40 45 42 38 37 38 38 35 36 38 40 42 43 40 39 39 39 38 36 34 32 31 33 32
24 24 23 21 20 17 12 14 16 21 25 28 31 33 32 35 37 35 37 41 41 38 37 38 38 37 37 39 38 38 40 40 39 39 39 38 37 36 34 33 34 35
24 23 21 20 20 17 13 14 17 19 24 27 27 31 32 32 33 33 33 36 38 37 35 37 39 38 37 40 40 38 39 39 39 39 38 37 37 37 36 35 34 34
23 21 19 19 20 18 13 11 15 16 23 26 24 26 29 30 31 31 30 31 35 36 34 34 36 36 35 38 40 39 40 40 38 37 36 36 37 36 36 37 37 35
21 18 18 19 19 17 13 11 13 15 21 24 22 22 27 30 29 28 28 29 30 32 31 30 30 30 31 37 41 43 43 40 38 37 36 37 38 38 39 40 40 39
19 18 18 18 19 18 14 9 12 14 18 21 21 21 25 28 29 28 27 26 27 29 28 27 28 27 27 28 33 42 45 41 39 39 38 37 38 38 40 41 40 39
18 18 19 18 19 19 16 10 9 13 16 19 22 22 23 24 26 27 26 24 24 26 27 29 30 29 28 27 26 34 41 38 37 38 39 39 39 38 38 39 39 37
20 19 19 19 19 19 18 14 11 13 16 19 21 22 22 22 23 25 25 23 22 24 25 28 30 29 28 27 26 31 37 39 37 36 37 39 40 39 39 40 41 40
23 22 21 20 19 18 18 15 12 12 14 17 18 20 22 24 25 25 24 23 24 26 27 27 28 28 26 25 23 25 30 36 37 36 36 39 41 42 42 42 43 42
24 23 23 22 20 18 17 14 12 12 13 14 15 16 19 22 24 24 23 24 26 29 30 29 29 29 31 33 28 21 22 26 29 30 27 24 27 33 38 41 43 43
23 23 22 21 20 19 18 17 15 13 13 13 13 13 16 20 21 22 22 23 25 29 30 32 32 32 34 37 34 27 23 24 28 32 27 20 20 22 25 29 33 37
23 23 22 21 20 19 19 20 20 17 15 14 13 12 14 17 18 19 21 21 22 25 27 31 34 34 34 34 33 31 29 25 27 34 35 29 28 29 29 29 28 28
24 23 22 22 21 20 19 19 20 18 17 16 15 13 12 13 14 17 20 19 20 23 26 28 30 31 31 32 34 34 33 29 28 31 32 31 32 35 36 35 33 33
24 23 23 23 22 21 19 18 18 19 18 18 17 15 15 14 13 16 19 20 19 22 24 26 27 28 29 30 32 35 36 34 31 28 26 25 26 30 34 36 37 37
Wind_Direction
234 231 229 227 229 231 231 229 224 222 221 221 226 231 227 218 211 209 212 214 212 208 208 207 206 207 208 205 204 203 202 204 204 203 203 205 208 209 209 213 214 212
244 238 232 227 229 232 233 233 230 225 223 223 226 231 233 226 215 208 209 211 213 211 209 208 205 205 208 208 206 202 199 201 202 202 202 205 208 210 210 211 214 216
252 247 236 227 228 231 232 233 234 231 227 225 227 229 232 231 220 209 206 207 211 213 210 208 205 203 205 209 208 202 199 200 201 200 202 205 206 209 210 211 214 216
257 253 242 230 228 232 233 231 232 233 231 228 228 227 229 232 225 212 206 206 208 213 212 210 207 203 204 207 208 204 200 200 201 201 203 204 206 208 210 212 214 216
268 260 248 233 226 231 234 233 232 232 232 229 228 228 230 236 233 217 207 205 207 211 212 209 207 205 204 206 209 208 203 200 201 202 203 205 206 207 209 212 216 217
278 270 256 238 227 228 234 236 234 230 230 230 228 229 231 238 241 228 213 209 208 210 209 206 204 203 201 203 207 210 205 201 201 201 202 204 207 207 208 210 214 217
282 277 268 247 230 225 229 235 235 229 228 229 229 229 230 233 237 231 220 214 214 214 211 205 202 200 198 200 204 207 206 202 201 202 202 204 205 206 207 210 213 214
287 285 280 267 246 229 222 227 231 228 225 226 226 227 226 226 229 228 221 213 211 215 216 210 204 199 197 199 201 204 203 201 200 202 202 203 204 206 207 209 213 214
290 290 286 281 268 253 235 227 227 225 225 226 224 224 224 222 222 227 227 218 209 210 217 218 211 202 199 200 201 202 201 199 198 201 203 202 202 204 206 208 212 214
293 292 290 288 280 273 263 245 231 224 229 235 229 222 226 225 220 224 228 224 215 211 212 218 218 208 201 201 203 203 202 198 196 199 203 204 203 203 204 205 208 212
295 294 292 291 289 284 271 257 241 223 224 236 235 222 224 228 225 224 227 226 223 216 210 211 216 214 207 205 205 205 204 200 197 197 203 207 207 206 205 206 208 211
295 296 295 293 297 295 269 245 242 222 211 221 229 221 217 224 226 223 224 226 223 218 212 209 212 215 213 209 206 205 205 203 199 200 204 209 211 209 209 210 211 213
296 297 298 297 301 302 272 234 236 228 213 212 220 218 212 217 220 217 219 224 224 220 216 211 210 212 214 215 210 206 205 202 200 202 207 211 214 212 211 213 214 215
300 298 301 305 307 303 276 242 238 238 228 220 220 220 216 213 213 212 214 218 221 222 218 215 213 211 210 214 214 210 206 202 201 204 207 210 213 213 212 214 217 217
301 301 306 315 314 308 287 248 236 241 242 235 225 222 222 218 215 214 214 215 218 222 221 217 215 212 209 209 211 210 208 203 201 204 207 208 211 213 213 216 217 216
301 304 309 317 317 314 302 258 238 244 246 239 232 226 225 225 224 221 221 222 222 225 228 224 220 218 212 208 209 209 207 204 201 204 207 209 211 212 214 218 219 218
305 310 312 317 320 319 308 268 246 252 250 240 236 233 228 228 229 227 230 232 232 234 236 235 236 234 221 212 210 209 207 203 201 205 209 211 212 212 213 217 219 220
313 318 319 322 326 327 318 277 238 244 253 247 241 238 235 235 234 230 232 236 240 244 244 243 245 244 237 231 220 210 207 204 201 205 209 211 212 212 213 215 218 219
320 320 323 326 326 327 328 311 257 242 242 239 238 238 239 243 241 235 234 235 239 245 249 251 249 242 244 253 241 218 211 207 204 206 209 210 212 212 212 214 216 217
326 325 325 325 322 323 330 329 303 271 246 232 233 235 237 242 242 238 236 235 234 236 241 250 253 247 242 248 249 239 227 216 210 210 210 211 213 213 213 214 215 215
330 328 326 324 322 324 327 332 330 306 271 245 234 230 230 237 240 236 232 233 237 239 241 246 249 247 240 236 246 258 247 229 218 214 213 214 215 215 214 214 215 214
328 326 325 325 327 328 327 330 340 333 311 285 258 238 231 235 239 237 229 224 228 233 236 239 242 244 241 234 235 251 260 251 241 233 229 228 227 223 219 216 214 212
325 325 325 327 330 331 332 335 336 334 326 308 283 262 251 245 244 243 236 225 221 221 223 228 237 244 243 233 226 231 245 257 260 257 258 271 276 264 250 238 228 218
325 326 326 329 332 332 334 334 330 327 325 312 294 277 263 254 252 253 249 237 227 224 223 225 232 239 236 225 221 226 232 240 248 248 246 250 258 263 267 269 264 253
327 328 328 328 330 330 329 327 323 320 318 311 302 291 277 269 262 259 258 250 236 231 232 230 231 234 232 222 220 225 230 233 239 239 238 238 240 245 253 260 263 263
328 328 328 327 325 324 322 323 321 318 315 312 307 297 288 280 262 251 255 254 242 233 233 235 235 236 235 229 223 223 227 233 234 232 233 236 237 240 246 252 255 257